HORIZONS-3E

Last updated on Fri Oct 11 2024 00:02:41 GMT+0000 (Coordinated Universal Time)

1 43633U 18074B 24283.34771514 -.00000022 00000+0 00000+0 0 9993 2 43633 0.0182 221.7812 0000832 46.5376 44.3542 1.00271924 22146
UTC large
Height (km)
Speed (km/s)
/
Latitude / Longitude
Inclination (degrees)
Orbital Period (minutes)
Azimuth
Elevation
Range (km)
Doppler Factor

Next 0 passes for location: London (51.5072 / 0.1276)

Sorry there are no passes over London.